This demonstration page uses our WeatherBlox Daily Observations layout. Learn more.

Hourly Observations for May 2, 2019

Temp ( °F °C ) Dew Point ( °F °C ) Humidity (%) Winds ( mph kmh ) Pressure ( in mb ) Visibility ( mi km ) Precip ( " mm )
12:54 am 00:54 Cloudy with Light Rain 46 7.8 42 5.6 86 86 N 7 11 30.15 1021 10 16.09344 0.02 0.508
1:54 am 01:54 Clear 45 7.2 42 5.6 90 90 NW 7 11 30.15 1021 10 16.09344 0.001 0.001
2:54 am 02:54 Mostly Clear 42 5.6 40 4.4 92 92 N 5 7 30.15 1021 9 14.484096 0 0
3:54 am 03:54 Mostly Clear 42 5.6 40 4.4 92 92 Calm 30.15 1021 7 11.265408 0 0
4:07 am 04:07 Mostly Cloudy 42 5.6 40 4.4 92 92 Calm 30.21 1023 7 11.265408 0 0
4:54 am 04:54 Mostly Cloudy 43 6.1 41 5 93 93 N 7 11 30.18 1022 10 16.09344 0 0
5:14 am 05:14 Partly Cloudy 41 5 39 3.9 93 93 NNE 5 7 30.24 1024 10 16.09344 0 0
5:54 am 05:54 Clear 39 3.9 37 2.8 93 93 Calm 30.21 1023 10 16.09344 0 0
6:54 am 06:54 Sunny 38 3.3 37 2.8 97 97 Calm 30.21 1023 8 12.874752 0 0
6:59 am 06:59 Sunny with Mist and Fog 37 2.8 36 2.2 96 96 Calm 30.27 1025 1.5 2.414016 0 0
7:07 am 07:07 Sunny 36 2.2 36 2.2 100 100 Calm 30.27 1025 10 16.09344 0 0
7:54 am 07:54 Sunny 43 6.1 41 5 93 93 Calm 30.21 1023 10 16.09344 0 0
8:54 am 08:54 Sunny 46 7.8 40 4.4 79 79 N 9 15 30.21 1023 10 16.09344 0 0
9:54 am 09:54 Mostly Sunny 50 10 40 4.4 68 68 N 10 17 30.21 1023 10 16.09344 0 0
11:54 am 11:54 Sunny 55 12.8 38 3.3 53 53 NE 9 15 30.21 1023 10 16.09344 0 0
12:54 pm 12:54 Sunny 58 14.4 37 2.8 46 46 NNE 12 19 30.18 1022 10 16.09344 0 0
1:54 pm 13:54 Sunny 59 15 36 2.2 42 42 Calm 30.15 1021 10 16.09344 0 0
2:54 pm 14:54 Sunny 62 16.7 37 2.8 40 40 VRB 7 11 30.12 1020 10 16.09344 0 0
3:54 pm 15:54 Sunny 63 17.2 36 2.2 37 37 NNE 6 9 30.09 1019 10 16.09344 0 0
4:54 pm 16:54 Sunny 63 17.2 34 1.1 34 34 NE 9 15 30.09 1019 10 16.09344 0 0
5:54 pm 17:54 Sunny 63 17.2 34 1.1 34 34 NE 10 17 30.06 1018 10 16.09344 0 0
6:54 pm 18:54 Mostly Cloudy 62 16.7 34 1.1 35 35 ENE 9 15 30.06 1018 10 16.09344 0 0
7:54 pm 19:54 Mostly Sunny 58 14.4 35 1.7 42 42 E 6 9 30.06 1018 10 16.09344 0 0
8:54 pm 20:54 Clear 58 14.4 35 1.7 42 42 ESE 8 13 30.09 1019 10 16.09344 0 0
9:54 pm 21:54 Clear 57 13.9 35 1.7 44 44 E 6 9 30.09 1019 10 16.09344 0 0
10:54 pm 22:54 Clear 55 12.8 35 1.7 47 47 ESE 3 6 30.09 1019 10 16.09344 0 0
11:54 pm 23:54 Clear 51 10.6 35 1.7 54 54 Calm 30.09 1019 10 16.09344 0 0

Powered by AerisWeather